Probability
3 4 5 5 5 4 2 1 0 0 1 1 0 0 0 0 0 0 0 0 0 0 0 0 0 1 1 3 4 2 1 0 0 0 0 0 0 0 0 0 0 0 0
3 4 5 6 6 5 4 3 1 1 1 2 1 0 0 0 0 0 0 0 0 0 0 0 0 1 2 3 3 2 1 0 0 0 0 0 0 0 0 0 0 0 0
1 2 4 5 6 6 5 5 3 1 2 2 1 0 0 0 0 0 0 0 0 0 0 0 0 0 1 2 2 1 0 0 0 0 0 0 0 0 0 0 0 0 0
0 1 3 5 6 5 5 5 4 3 2 1 1 1 1 0 0 0 0 0 0 0 0 0 0 0 0 1 1 0 0 0 0 0 0 0 0 0 0 0 0 0 0
0 1 3 5 6 5 6 7 6 3 1 2 3 3 2 0 0 0 0 0 0 0 0 0 0 1 0 0 0 0 0 0 0 0 0 0 0 0 0 0 0 0 0
0 0 2 5 6 5 6 8 7 4 2 2 4 3 1 0 0 0 0 0 0 0 0 0 0 0 0 0 0 0 0 0 0 0 0 0 0 0 0 0 1 1 0
0 0 2 5 7 6 6 7 7 5 4 3 3 2 1 0 0 0 0 0 0 0 0 0 0 0 0 0 0 0 0 0 0 0 0 0 0 1 0 0 1 1 1
0 0 1 5 8 8 8 7 6 5 4 4 3 1 0 0 0 1 1 0 0 0 0 0 0 0 0 0 0 0 0 0 0 0 0 0 0 0 0 0 1 1 0
0 0 1 5 8 9 9 8 7 6 5 5 3 1 0 0 1 2 1 0 0 0 0 0 0 0 0 0 0 0 0 0 0 0 0 0 0 0 0 0 0 0 0
1 1 2 4 6 8 9 9 8 7 6 5 3 2 1 0 1 1 1 1 1 1 1 1 0 0 0 0 0 0 0 0 0 0 0 0 0 0 0 0 0 0 1
3 3 4 3 4 5 7 8 8 7 6 5 4 3 1 0 0 1 1 2 2 2 2 1 0 0 0 0 0 0 0 0 0 0 0 0 0 0 0 0 1 1 2
5 5 5 4 3 3 4 5 6 6 6 6 5 3 1 0 0 0 1 1 2 2 1 1 0 0 0 0 0 0 0 0 0 0 0 0 0 1 1 1 2 2 2
5 5 5 3 2 1 1 3 4 6 6 6 4 3 1 0 0 0 0 0 1 1 1 0 0 0 0 0 0 0 0 0 0 0 0 0 1 2 2 1 2 3 2
6 6 5 3 2 1 1 3 5 5 5 4 3 2 1 0 0 0 0 0 0 0 0 0 0 0 0 0 0 0 0 0 0 0 0 0 2 3 2 1 1 2 2
8 7 5 4 4 3 3 4 4 4 3 2 2 1 0 0 0 0 0 0 0 0 0 0 0 0 0 0 0 0 0 0 0 0 0 0 1 3 2 1 1 1 2
7 6 5 5 5 6 5 5 4 3 2 2 2 2 1 0 0 0 0 0 0 0 0 0 0 0 0 0 0 0 0 0 0 0 0 0 1 2 2 1 1 2 2
6 5 5 6 7 7 7 6 5 4 3 3 3 3 2 2 1 0 0 0 0 0 0 0 0 0 0 0 0 0 0 0 0 0 0 0 0 1 1 0 1 1 1
5 4 5 6 6 6 6 6 6 4 3 3 3 3 3 2 1 0 0 0 0 0 0 0 0 0 0 0 0 0 0 0 0 0 0 0 0 0 0 0 0 0 0
3 3 3 4 4 3 3 5 5 3 2 2 2 2 2 2 1 0 0 0 0 0 0 0 0 0 0 0 0 0 0 0 0 0 0 0 0 0 0 0 0 1 1
2 2 3 4 3 1 1 2 3 2 1 1 1 1 0 0 0 0 0 0 0 0 0 0 0 0 0 0 0 0 0 0 0 0 0 0 0 0 0 0 0 0 0
4 3 3 4 3 1 1 2 3 2 2 2 1 1 1 1 1 1 1 0 0 0 0 0 0 0 0 0 0 0 0 0 0 0 0 0 0 0 0 0 0 0 0
7 5 4 4 3 2 2 3 4 3 3 3 2 2 2 2 2 2 2 0 0 0 0 0 0 0 0 0 0 0 0 0 0 0 0 0 0 0 0 0 0 0 0
7 5 4 4 4 4 4 6 6 4 4 3 3 2 1 1 1 1 1 0 0 0 0 0 0 0 0 0 0 0 0 0 0 0 0 0 0 0 0 0 0 0 0
6 5 5 7 8 7 7 8 8 7 5 4 3 2 1 1 1 1 1 1 1 1 0 0 0 0 0 0 0 0 0 0 0 0 0 0 0 0 0 0 0 0 0
5 6 8 11 12 11 10 10 9 8 6 5 4 3 3 3 4 4 3 2 1 0 0 0 0 0 0 0 0 0 0 0 0 0 0 0 0 0 0 0 0 1 1
4 7 11 14 13 12 11 10 9 7 6 6 5 4 4 5 6 6 5 3 1 0 0 0 0 0 0 0 0 0 0 0 0 0 0 0 0 0 0 0 0 1 2
Wind_Speed
3 4 8 10 11 11 11 12 12 13 13 13 13 13 13 13 13 13 14 14 14 13 13 12 13 13 13 13 13 13 14 14 14 14 15 15 14 14 14 15 14 10 15
6 6 9 10 11 11 12 12 12 13 13 13 13 13 13 13 13 13 14 14 13 13 13 12 12 12 12 12 13 13 13 13 13 14 14 13 14 14 14 14 14 9 14
7 6 9 10 11 12 12 12 12 12 12 12 12 13 13 12 13 13 13 13 13 13 12 12 11 11 11 11 12 12 12 12 12 12 12 6 8 12 13 14 15 14 14
7 6 8 11 12 12 12 12 12 12 12 12 12 12 13 13 13 13 13 13 13 13 12 11 11 11 11 11 11 11 11 11 11 11 6 4 6 11 13 14 14 14 13
7 6 8 13 13 13 12 11 11 11 12 12 12 12 13 12 12 13 13 13 13 13 12 11 11 10 11 11 10 10 10 10 9 8 5 4 4 11 13 13 14 13 13
6 6 8 13 14 13 12 11 11 11 11 12 12 12 12 12 12 12 12 12 12 12 11 11 10 10 10 10 10 9 8 8 7 5 5 4 4 10 13 13 13 13 13
7 5 7 13 13 13 12 11 11 10 11 11 11 11 11 11 11 12 11 11 11 11 10 10 10 9 9 9 8 7 8 8 6 5 4 4 5 11 12 12 13 12 12
8 6 7 12 13 12 12 12 11 11 11 11 11 11 11 11 11 10 10 10 11 10 10 9 9 8 8 8 7 6 7 7 7 6 4 4 7 11 12 12 11 11 11
7 6 5 5 8 11 11 11 10 11 11 11 11 10 10 10 9 9 9 9 10 9 9 9 8 7 7 6 6 5 6 7 5 4 6 4 8 10 11 11 11 11 11
6 6 5 4 4 5 6 9 10 10 11 11 10 10 9 9 8 8 7 8 9 9 8 8 7 7 6 5 5 5 5 6 3 3 3 5 10 11 11 11 10 10 10
5 4 4 5 4 4 4 7 7 8 8 9 8 9 8 3 3 4 6 8 8 8 8 7 6 6 4 4 4 4 4 2 3 3 3 6 10 11 10 10 10 10 10
6 5 4 5 5 4 4 3 2 3 3 3 3 4 3 2 2 4 5 7 7 7 6 6 5 4 2 2 2 3 2 3 3 3 3 9 10 10 10 9 9 9 10
6 6 5 5 5 4 3 3 2 1 1 2 3 3 3 2 2 2 1 2 3 4 2 2 2 1 1 1 1 2 2 2 2 2 3 9 9 10 10 9 9 9 9
5 4 4 5 5 4 3 3 3 2 2 2 3 4 3 2 2 2 1 1 1 1 2 1 1 1 1 1 2 2 2 2 2 2 3 9 9 9 10 9 9 9 9
5 4 4 4 5 4 3 3 4 3 3 3 3 3 3 3 3 3 2 1 1 2 2 2 2 2 1 1 1 2 3 3 3 3 2 8 8 8 9 9 9 9 9
5 4 4 5 4 4 3 2 3 3 3 3 2 3 4 3 3 3 3 2 2 2 2 2 2 2 1 1 1 2 3 3 3 3 2 4 7 7 7 8 8 8 9
5 5 5 5 4 4 3 3 3 3 3 3 2 3 3 3 3 3 3 2 2 2 2 2 2 2 1 1 2 2 2 3 4 4 3 2 3 5 7 7 7 8 8
6 5 4 5 5 3 3 2 2 3 3 2 2 2 3 4 4 3 3 2 2 2 2 2 2 2 1 1 1 1 2 2 3 4 3 3 2 2 4 6 6 7 8
6 6 5 4 4 3 2 2 3 3 3 2 2 2 3 3 4 3 2 2 2 2 2 2 2 2 2 1 1 1 1 2 2 3 3 3 3 2 2 3 5 6 7
6 6 5 4 3 3 2 3 3 2 2 2 2 2 3 3 4 4 3 2 2 2 1 2 2 1 2 2 2 2 1 1 1 2 3 3 3 3 2 2 2 3 6
6 6 5 4 3 3 2 2 2 1 1 1 1 3 3 3 4 4 3 2 2 2 2 2 2 2 1 2 3 2 2 2 1 1 2 2 2 3 3 2 2 1 2
7 6 5 5 4 3 2 2 2 2 2 2 1 2 3 3 3 4 3 2 2 3 3 2 2 2 1 2 3 2 2 2 2 1 1 2 2 2 3 3 3 2 1
7 7 6 5 4 3 3 2 2 3 2 2 1 1 1 3 3 3 3 3 2 3 3 3 3 4 2 0 1 3 3 2 1 1 0 0 1 1 2 2 3 3 3
8 7 6 5 4 3 3 3 3 3 2 2 1 1 1 2 2 3 3 3 3 2 3 3 3 3 3 1 1 0 2 3 3 0 1 1 0 1 1 2 2 2 2
9 8 6 5 4 3 3 4 4 3 2 2 2 2 2 1 1 2 3 3 3 2 2 2 2 2 2 2 2 1 1 1 2 3 1 1 1 1 1 2 2 2 2
8 7 7 6 4 4 4 4 4 4 3 3 3 2 1 1 1 1 2 2 2 2 2 2 2 2 2 2 2 2 2 2 2 2 2 1 1 1 1 0 1 2 2
Wind_Direction
150 156 135 127 121 118 113 108 106 104 104 104 104 104 105 107 110 117 120 120 119 118 119 119 120 120 120 122 124 123 123 124 125 125 128 129 130 131 132 128 126 123 125
153 154 135 129 122 118 115 111 107 106 106 106 106 107 108 108 110 117 120 120 119 117 116 118 119 118 120 121 123 124 124 126 128 128 130 132 133 132 134 131 129 132 132
134 143 136 130 122 119 116 114 110 109 108 108 108 109 111 110 111 115 119 121 121 118 117 117 118 118 121 124 125 127 127 127 128 128 128 127 133 134 136 135 133 134 133
132 137 135 131 126 122 119 115 113 111 111 112 112 111 113 112 112 116 119 122 122 121 120 118 120 118 121 125 127 128 129 129 132 130 127 131 137 139 140 138 136 138 137
130 134 139 135 130 126 122 118 117 115 116 116 116 114 114 113 112 115 118 121 123 123 124 123 119 122 125 127 128 129 130 129 131 127 127 132 135 146 145 143 141 142 141
131 138 143 138 133 130 127 124 120 119 121 122 120 119 119 118 117 117 119 124 127 129 128 127 124 121 124 128 130 131 131 131 121 118 127 135 138 143 146 148 146 147 147
137 145 145 139 137 135 132 127 126 125 126 127 126 124 124 123 122 121 121 125 130 131 132 131 128 126 125 129 131 128 130 125 114 114 126 139 144 146 147 149 153 152 150
144 148 145 144 141 139 139 137 135 135 136 135 133 130 130 129 128 127 128 128 131 131 134 135 132 130 130 133 131 127 127 123 122 128 131 143 152 152 151 150 152 154 156
144 144 147 149 145 145 146 145 143 142 143 143 142 140 139 137 135 135 135 134 136 140 142 144 143 140 138 140 140 136 133 129 125 138 149 154 156 157 156 156 157 158 161
143 148 151 144 143 150 152 152 150 147 147 149 150 148 147 147 146 145 145 145 146 147 150 153 153 152 149 150 147 136 129 129 129 138 145 161 163 164 163 161 160 161 160
143 153 154 151 153 155 156 160 156 155 155 156 157 157 156 151 151 153 158 159 159 160 161 163 162 156 157 154 148 137 128 131 140 143 155 168 169 168 168 165 162 161 161
153 161 161 158 163 162 163 151 152 159 155 152 150 156 148 151 162 166 166 171 170 169 171 170 166 160 154 132 136 131 122 133 141 155 167 167 170 170 168 166 165 167 165
155 156 159 159 158 160 153 148 148 153 149 148 148 151 141 140 147 149 149 166 170 170 160 145 151 149 139 136 133 126 132 133 145 157 161 165 171 175 174 171 171 170 169
141 150 157 156 152 156 145 153 159 159 153 153 154 153 149 145 148 152 153 154 156 150 149 141 141 154 157 156 145 131 134 142 141 143 160 166 173 177 176 177 176 175 174
130 137 142 140 146 147 144 159 152 157 155 155 148 154 155 152 158 160 157 153 157 153 161 162 155 156 165 168 155 137 150 148 138 143 159 170 177 180 180 181 181 179 178
134 134 138 136 138 134 138 142 148 156 149 148 154 154 149 150 157 156 154 154 161 168 168 161 159 158 160 152 150 145 148 145 143 145 159 173 176 178 179 181 181 181 182
140 134 133 131 123 120 124 141 149 155 150 152 158 158 153 152 157 153 154 157 166 157 156 145 142 136 137 146 153 152 147 150 153 158 164 165 175 178 177 182 185 187 188
132 129 137 127 117 118 122 118 121 135 142 149 155 158 163 162 152 143 147 161 159 145 142 138 136 120 126 135 134 143 145 148 160 166 165 167 169 176 189 192 194 192 190
137 131 125 117 123 128 125 110 110 118 129 142 145 149 160 160 152 140 145 149 138 126 125 144 133 141 141 137 139 132 136 136 158 167 170 175 176 173 183 194 194 191 192
137 131 125 122 122 115 104 92 90 92 108 120 133 145 145 147 146 140 141 142 124 112 110 126 135 141 148 147 114 83 81 124 129 144 159 160 167 170 171 183 191 204 196
135 129 128 126 120 109 101 103 107 119 129 130 148 149 144 140 140 137 139 136 135 139 154 152 137 130 117 117 98 63 29 38 92 113 123 135 158 165 161 176 178 188 196
148 145 138 138 136 131 134 136 134 134 140 145 140 134 143 142 144 143 143 145 142 137 138 141 136 125 123 124 127 111 47 5 4 63 111 145 153 141 165 179 172 173 176
155 156 152 150 145 144 133 105 86 75 65 73 88 116 155 151 147 143 142 140 138 141 154 160 151 143 154 245 159 141 145 198 298 349 354 129 172 165 176 167 173 180 185
167 161 151 153 149 145 135 124 122 126 137 168 162 153 132 135 140 142 143 143 142 142 149 169 163 151 146 164 283 161 159 154 150 165 338 336 224 199 203 179 170 181 185
166 160 155 152 151 148 144 142 135 130 138 123 111 112 106 100 127 136 143 146 144 141 150 164 149 146 152 160 166 162 109 92 122 141 198 301 342 291 231 184 178 184 185
164 159 155 153 158 157 147 139 141 140 133 118 114 119 116 105 87 108 130 141 143 142 151 165 160 150 158 153 152 151 146 148 169 152 170 192 220 285 293 181 186 196 198